Skip Page Navigation
NASA JPL Caltech
NASA Logo - Jet Propulsion Laboratory + View the NASA Portal
+ Center for Near-Earth Object Studies
JPL Home Earth Solar System Stars & Galaxies Technology
JPL Solar System Dynamics
BODIES ORBITS EPHEMERIDES TOOLS PHYSICAL DATA DISCOVERY FAQ SITE MAP
JPL Small-Body Database Browser
Search: [ help ]  
29565 Glenngould (1998 FD)
Classification: Main-belt Asteroid          SPK-ID: 2029565
Ephemeris | Orbit Diagram | Orbital Elements | Mission Design | Physical Parameters | Discovery Circumstances | Close-Approach Data ]

[ hide orbit diagram ]

For accurate long-term ephemerides, please instead use our Horizons system.This orbit viewer was implemented using two-body methods, and hence should not be used for determining accurate long-term trajectories (over several years or decades) or planetary encounter circumstances.


Orbital Elements at Epoch 2459396.5 (2021-Jul-01.0) TDB
Reference: JPL 27 (heliocentric ecliptic J2000)
 Element Value Uncertainty (1-sigma)   Units 
e .224643462123196 3.0513e-08  
a 3.027508740066486 1.3616e-08 au
q 2.347398695089716 9.0997e-08 au
i 2.27157932641656 4.4468e-06 deg
node 330.5279825617156 0.00010266 deg
peri 135.4190148736579 0.0001033 deg
M 196.0474635378106 1.1691e-05 deg
tp 2460272.778536739507
(2023-Nov-24.27853674)
6.6028e-05 TDB
period 1924.095107238392
5.27
1.298e-05
3.554e-08
d
yr
n .1871009383297583 1.2622e-09 deg/d
Q 3.707618785043257 1.6675e-08 au
  Orbit Determination Parameters
   # obs. used (total)      1414  
   data-arc span      14398 days (39.42 yr)  
   first obs. used      1982-01-30  
   last obs. used      2021-07-02  
   planetary ephem.      DE441  
   SB-pert. ephem.      SB441-N16  
   condition code      0  
   norm. resid. RMS      .5348  
   source      ORB  
   producer      Otto Matic  
   solution date      2021-Jul-09 10:21:35  

Additional Information
 Earth MOID = 1.36516 au 
 Jupiter MOID = 1.44565 au 
 T_jup = 3.204 
[ show covariance matrix ]

Ephemeris | Orbit Diagram | Orbital Elements | Mission Design | Physical Parameters | Discovery Circumstances | Close-Approach Data ]

Physical Parameter Table
Parameter Symbol Value Units Sigma Reference Notes
absolute magnitude H 14.05   n/a E2021B10  

29565 Glenngould           Discovered 1998 Mar. 17 by M. Boeuf at Les Tardieux.
Glenn Gould (1932-1982) was the preeminent Canadian pianist and composer of his time.
NOTE: some special characters may not display properly (any characters within {} are an attempt to place the proper accent above a character)
Reference: 20020427/MPCPages.arcLast Updated: 2003-10-02

[ show close-approach data ]
Alternate Designations
 1998 FD = 1982 BW13 = 1993 FA26 
Ephemeris | Orbit Diagram | Orbital Elements | Mission Design | Physical Parameters | Discovery Circumstances | Close-Approach Data ]
ABOUT SSD CREDITS/AWARDS PRIVACY/COPYRIGHT GLOSSARY LINKS
FirstGov 2021-Aug-01 21:08 UT
(server date/time)  
NASA Home Page
Site Manager:   Ryan S. Park
Webmaster  Alan B. Chamberlin